WAT4855 OMDB-KJFK

Flight info

Callsign WAT4855
Flight time N/A
Altitude 32000
Route RIDA2F RIDAP M557 TUMAK L602 TASMI ODALI UL852 NEGEM TEGRI ABETI SNU RENKA MAMOR PETIX TUSUK ADKUV BUB L608 DENUT L610 KOPUL Q60 OKSAW FELCA OFSOX SLANY MALOT NATE RIKAL N572A TOPPS ENE PARCH4
Aircraft A343/H-SDE2E3FGHIJ4J5M1RWXY/LB1D1

Departure

Time 2026-04-24 00:51
Airport Dubai International Airport (OMDB)

Arrival

Time N/A
Airport John F. Kennedy International Airport (KJFK)
Time Latitude Longitude Altitude Speed Heading
2026-04-24 00:17 25.25409 55.35335 30 ft 0 kts 211°
2026-04-24 00:36 25.25410 55.35336 26 ft 2 kts 211°
2026-04-24 00:36 25.25432 55.35351 28 ft 4 kts 211°
2026-04-24 00:36 25.25455 55.35367 31 ft 4 kts 211°
2026-04-24 00:37 25.25478 55.35382 31 ft 4 kts 223°
2026-04-24 00:37 25.25487 55.35403 31 ft 4 kts 287°
2026-04-24 00:37 25.25476 55.35429 31 ft 3 kts 295°
2026-04-24 00:37 25.25474 55.35436 26 ft 0 kts 295°
2026-04-24 00:41 25.25474 55.35434 26 ft 2 kts 295°
2026-04-24 00:42 25.25487 55.35403 28 ft 7 kts 296°
2026-04-24 00:42 25.25511 55.35357 29 ft 8 kts 300°
2026-04-24 00:42 25.25541 55.35301 30 ft 9 kts 300°
2026-04-24 00:42 25.25575 55.35238 30 ft 11 kts 302°
2026-04-24 00:43 25.25613 55.35171 29 ft 10 kts 305°
2026-04-24 00:43 25.25665 55.35151 30 ft 7 kts 12°
2026-04-24 00:43 25.25719 55.35184 30 ft 10 kts 31°
2026-04-24 00:43 25.25776 55.35221 28 ft 9 kts 31°
2026-04-24 00:44 25.25828 55.35257 29 ft 10 kts 32°
2026-04-24 00:44 25.25903 55.35308 29 ft 15 kts 32°
2026-04-24 00:44 25.25984 55.35376 29 ft 14 kts 51°
2026-04-24 00:44 25.26005 55.35480 28 ft 15 kts 98°
2026-04-24 00:45 25.25956 55.35593 29 ft 18 kts 119°
2026-04-24 00:45 25.25889 55.35716 29 ft 20 kts 122°
2026-04-24 00:45 25.25816 55.35844 27 ft 20 kts 122°
2026-04-24 00:45 25.25735 55.35988 30 ft 24 kts 122°
2026-04-24 00:46 25.25651 55.36139 30 ft 22 kts 121°
2026-04-24 00:46 25.25574 55.36281 29 ft 22 kts 120°
2026-04-24 00:46 25.25497 55.36418 30 ft 20 kts 122°
2026-04-24 00:46 25.25426 55.36548 29 ft 20 kts 121°
2026-04-24 00:47 25.25345 55.36697 31 ft 24 kts 121°
2026-04-24 00:47 25.25259 55.36851 30 ft 23 kts 122°
2026-04-24 00:47 25.25168 55.37010 30 ft 27 kts 122°
2026-04-24 00:47 25.25070 55.37181 29 ft 26 kts 122°
2026-04-24 00:48 25.24984 55.37345 28 ft 24 kts 120°
2026-04-24 00:48 25.24902 55.37491 27 ft 22 kts 122°
2026-04-24 00:48 25.24825 55.37629 29 ft 20 kts 121°
2026-04-24 00:48 25.24754 55.37759 29 ft 19 kts 121°
2026-04-24 00:49 25.24690 55.37874 29 ft 16 kts 122°
2026-04-24 00:49 25.24671 55.37908 29 ft 3 kts 118°
2026-04-24 00:49 25.24670 55.37947 29 ft 6 kts 71°
2026-04-24 00:49 25.24715 55.37984 31 ft 10 kts 31°
2026-04-24 00:50 25.24781 55.38024 30 ft 10 kts 16°
2026-04-24 00:50 25.24832 55.37984 31 ft 13 kts 301°
2026-04-24 00:50 25.24936 55.37789 30 ft 52 kts 301°
2026-04-24 00:50 25.25209 55.37296 28 ft 97 kts 302°
2026-04-24 00:51 25.25633 55.36537 31 ft 134 kts 301°
2026-04-24 00:51 25.26184 55.35553 27 ft 165 kts 302°
2026-04-24 00:51 25.26805 55.34463 408 ft 160 kts 303°
2026-04-24 00:51 25.27373 55.33449 800 ft 154 kts 302°
2026-04-24 00:52 25.27945 55.32430 1028 ft 161 kts 302°
2026-04-24 00:52 25.28563 55.31315 1107 ft 179 kts 302°
2026-04-24 00:52 25.29228 55.30099 1363 ft 189 kts 302°
2026-04-24 00:52 25.29929 55.28838 1652 ft 197 kts 304°
2026-04-24 00:53 25.30728 55.27561 1787 ft 207 kts 307°
2026-04-24 00:53 25.31590 55.26231 1899 ft 218 kts 308°
2026-04-24 00:53 25.32497 55.24827 1982 ft 232 kts 307°
2026-04-24 00:53 25.33449 55.23348 2248 ft 238 kts 307°
2026-04-24 00:54 25.34413 55.21840 2524 ft 245 kts 306°
2026-04-24 00:54 25.35382 55.20238 2695 ft 258 kts 298°
2026-04-24 00:54 25.35855 55.18295 2812 ft 270 kts 271°
2026-04-24 00:54 25.35816 55.16212 3037 ft 279 kts 267°
2026-04-24 00:55 25.35712 55.14028 3413 ft 281 kts 267°
2026-04-24 00:55 25.35619 55.11907 3863 ft 281 kts 267°
2026-04-24 00:55 25.35531 55.09752 4313 ft 280 kts 267°
2026-04-24 00:55 25.35447 55.07574 4773 ft 279 kts 267°
2026-04-24 00:56 25.35367 55.05451 5178 ft 281 kts 266°
2026-04-24 00:56 25.35287 55.03290 5567 ft 282 kts 266°
2026-04-24 00:56 25.35207 55.01111 5971 ft 284 kts 266°
2026-04-24 00:56 25.35126 54.98924 6363 ft 286 kts 266°
2026-04-24 00:57 25.35046 54.96724 6751 ft 287 kts 266°
2026-04-24 00:57 25.34964 54.94517 7158 ft 288 kts 266°
2026-04-24 00:57 25.35062 54.90083 7954 ft 293 kts 281°
2026-04-24 00:58 25.35631 54.87912 8385 ft 295 kts 285°
2026-04-24 00:58 25.36262 54.85754 8800 ft 296 kts 285°
2026-04-24 00:58 25.36897 54.83579 9234 ft 297 kts 284°
2026-04-24 00:58 25.37518 54.81435 9738 ft 295 kts 284°
2026-04-24 00:59 25.38142 54.79267 10127 ft 297 kts 284°
2026-04-24 00:59 25.38775 54.77053 10314 ft 307 kts 284°
2026-04-24 00:59 25.39428 54.74768 10470 ft 317 kts 284°
2026-04-24 00:59 25.40101 54.72408 10628 ft 326 kts 284°
2026-04-24 01:00 25.40797 54.69974 10781 ft 335 kts 284°
2026-04-24 01:00 25.41507 54.67482 10930 ft 344 kts 284°
2026-04-24 01:00 25.42234 54.64932 11082 ft 352 kts 285°
2026-04-24 01:00 25.42975 54.62326 11262 ft 358 kts 285°
2026-04-24 01:01 25.43736 54.59684 11525 ft 362 kts 285°
2026-04-24 01:01 25.44519 54.57027 11808 ft 365 kts 286°
2026-04-24 01:01 25.45313 54.54357 12130 ft 367 kts 286°
2026-04-24 01:01 25.46115 54.51666 12438 ft 368 kts 286°
2026-04-24 01:02 25.46908 54.48999 12752 ft 370 kts 286°
2026-04-24 01:02 25.47725 54.46244 13017 ft 374 kts 286°
2026-04-24 01:02 25.48535 54.43506 13331 ft 375 kts 286°
2026-04-24 01:02 25.49337 54.40789 13654 ft 376 kts 287°
2026-04-24 01:03 25.50153 54.38021 13952 ft 378 kts 287°
2026-04-24 01:03 25.50967 54.35256 14242 ft 379 kts 287°
2026-04-24 01:03 25.51783 54.32479 14535 ft 380 kts 287°
2026-04-24 01:03 25.52605 54.29684 14818 ft 382 kts 286°
2026-04-24 01:04 25.53426 54.26889 15104 ft 383 kts 286°
2026-04-24 01:04 25.54254 54.24068 15373 ft 385 kts 287°
2026-04-24 01:04 25.55090 54.21235 15617 ft 388 kts 287°
2026-04-24 01:04 25.55925 54.18393 15893 ft 389 kts 287°
2026-04-24 01:05 25.56481 54.16496 16090 ft 390 kts 287°
2026-04-24 01:05 25.57320 54.13632 16386 ft 392 kts 286°
2026-04-24 01:05 25.58163 54.10747 16677 ft 393 kts 286°
2026-04-24 01:05 25.59283 54.06916 17069 ft 395 kts 286°
2026-04-24 01:06 25.59858 54.04952 17258 ft 396 kts 286°
2026-04-24 01:06 25.60697 54.02037 17555 ft 398 kts 286°
2026-04-24 01:06 25.61518 53.99152 17849 ft 399 kts 286°
2026-04-24 01:06 25.62354 53.96200 18138 ft 401 kts 286°
2026-04-24 01:07 25.63191 53.93243 18415 ft 402 kts 286°
2026-04-24 01:07 25.64029 53.90287 18685 ft 404 kts 285°
2026-04-24 01:07 25.64875 53.87306 18939 ft 405 kts 285°
2026-04-24 01:07 25.65723 53.84319 19204 ft 407 kts 286°
2026-04-24 01:08 25.66571 53.81328 19458 ft 409 kts 286°
2026-04-24 01:08 25.67426 53.78316 19709 ft 410 kts 285°
2026-04-24 01:08 25.68285 53.75285 19966 ft 412 kts 286°
2026-04-24 01:08 25.69144 53.72253 20241 ft 413 kts 286°
2026-04-24 01:09 25.70008 53.69208 20516 ft 414 kts 285°
2026-04-24 01:09 25.70869 53.66150 20771 ft 416 kts 285°
2026-04-24 01:09 25.71727 53.63088 21024 ft 417 kts 285°
2026-04-24 01:09 25.72577 53.60053 21272 ft 419 kts 285°
2026-04-24 01:10 25.73735 53.55918 21592 ft 421 kts 285°
2026-04-24 01:10 25.74312 53.53857 21772 ft 421 kts 285°
2026-04-24 01:10 25.75181 53.50751 22009 ft 423 kts 285°
2026-04-24 01:10 25.76057 53.47629 22274 ft 424 kts 285°
2026-04-24 01:11 25.76936 53.44499 22545 ft 426 kts 285°
2026-04-24 01:11 25.77819 53.41353 22781 ft 427 kts 285°
2026-04-24 01:11 25.78704 53.38195 23017 ft 429 kts 285°
2026-04-24 01:11 25.79590 53.35033 23277 ft 430 kts 285°
2026-04-24 01:12 25.80482 53.31847 23481 ft 432 kts 285°
2026-04-24 01:12 25.81373 53.28657 23701 ft 433 kts 285°
2026-04-24 01:12 25.82255 53.25501 23919 ft 434 kts 285°
2026-04-24 01:12 25.83150 53.22292 24130 ft 436 kts 285°
2026-04-24 01:13 25.84104 53.19093 24328 ft 438 kts 290°
2026-04-24 01:13 25.85269 53.15966 24561 ft 439 kts 291°
2026-04-24 01:13 25.86489 53.12859 24770 ft 440 kts 292°
2026-04-24 01:13 25.87743 53.09752 24974 ft 441 kts 292°
2026-04-24 01:14 25.89014 53.06643 25200 ft 442 kts 292°
2026-04-24 01:14 25.90287 53.03541 25397 ft 443 kts 292°
2026-04-24 01:14 25.91564 53.00422 25614 ft 444 kts 292°
2026-04-24 01:14 25.92842 52.97290 25847 ft 444 kts 292°
2026-04-24 01:15 25.94114 52.94163 26037 ft 445 kts 292°
2026-04-24 01:15 25.95390 52.91021 26247 ft 446 kts 292°
2026-04-24 01:15 25.96663 52.87878 26448 ft 447 kts 292°
2026-04-24 01:15 25.97926 52.84757 26643 ft 448 kts 292°
2026-04-24 01:16 25.99205 52.81596 26859 ft 449 kts 292°
2026-04-24 01:16 26.00487 52.78423 27036 ft 450 kts 292°
2026-04-24 01:16 26.01772 52.75241 27234 ft 451 kts 292°
2026-04-24 01:16 26.03081 52.72076 27498 ft 451 kts 294°
2026-04-24 01:17 26.04469 52.68946 27711 ft 452 kts 295°
2026-04-24 01:17 26.05898 52.65829 27899 ft 453 kts 295°
2026-04-24 01:17 26.07343 52.62701 28077 ft 454 kts 295°
2026-04-24 01:17 26.08760 52.59618 28265 ft 455 kts 295°
2026-04-24 01:18 26.10216 52.56425 28442 ft 456 kts 295°
2026-04-24 01:18 26.11649 52.53257 28631 ft 457 kts 295°
2026-04-24 01:18 26.13074 52.50100 28859 ft 457 kts 295°
2026-04-24 01:18 26.14500 52.46940 29200 ft 454 kts 295°
2026-04-24 01:19 26.15911 52.43809 29490 ft 453 kts 294°
2026-04-24 01:19 26.17309 52.40705 29736 ft 453 kts 294°
2026-04-24 01:19 26.18721 52.37566 29869 ft 455 kts 294°
2026-04-24 01:19 26.20139 52.34412 30089 ft 454 kts 294°
2026-04-24 01:20 26.21548 52.31277 30341 ft 452 kts 294°
2026-04-24 01:20 26.22952 52.28144 30599 ft 451 kts 294°
2026-04-24 01:20 26.24321 52.25017 30905 ft 447 kts 293°
2026-04-24 01:20 26.25660 52.21906 31164 ft 445 kts 293°
2026-04-24 01:21 26.26992 52.18797 31360 ft 444 kts 293°
2026-04-24 01:21 26.28321 52.15695 31556 ft 443 kts 293°
2026-04-24 01:21 26.29648 52.12603 31748 ft 442 kts 293°
2026-04-24 01:21 26.30981 52.09505 31884 ft 442 kts 293°
2026-04-24 01:22 26.32308 52.06431 31910 ft 436 kts 293°
2026-04-24 01:22 26.34920 52.00396 31915 ft 431 kts 293°
2026-04-24 01:23 26.37462 51.94344 31906 ft 430 kts 289°
2026-04-24 01:23 26.39626 51.88128 31918 ft 430 kts 288°
2026-04-24 01:24 26.41727 51.81887 31914 ft 430 kts 288°
2026-04-24 01:24 26.43801 51.75678 31906 ft 430 kts 288°
2026-04-24 01:25 26.45889 51.69423 31920 ft 429 kts 288°
2026-04-24 01:25 26.47979 51.63184 31917 ft 429 kts 288°
2026-04-24 01:26 26.50062 51.56934 31911 ft 429 kts 288°
2026-04-24 01:26 26.52136 51.50681 31919 ft 429 kts 288°
2026-04-24 01:27 26.54209 51.44431 31923 ft 429 kts 288°
2026-04-24 01:27 26.56269 51.38215 31920 ft 429 kts 288°
2026-04-24 01:28 26.58343 51.31951 31916 ft 429 kts 287°
2026-04-24 01:28 26.60410 51.25702 31922 ft 429 kts 287°
2026-04-24 01:29 26.62483 51.19444 31923 ft 429 kts 287°
2026-04-24 01:29 26.64553 51.13185 31924 ft 429 kts 287°
2026-04-24 01:30 26.66607 51.06961 31922 ft 429 kts 287°
2026-04-24 01:30 26.68667 51.00708 31938 ft 429 kts 286°
2026-04-24 01:31 26.70696 50.94446 31919 ft 427 kts 285°
2026-04-24 01:31 26.72684 50.88193 31920 ft 426 kts 285°
2026-04-24 01:32 26.74671 50.81942 31926 ft 426 kts 285°
2026-04-24 01:32 26.76661 50.75692 31935 ft 426 kts 285°
2026-04-24 01:33 26.78652 50.69444 31934 ft 426 kts 286°
2026-04-24 01:33 26.81393 50.63511 31941 ft 435 kts 300°
2026-04-24 01:34 26.85110 50.58123 31941 ft 438 kts 303°
2026-04-24 01:34 26.88977 50.52848 31950 ft 439 kts 303°
2026-04-24 01:35 26.92873 50.47577 31950 ft 439 kts 305°
2026-04-24 01:35 26.97030 50.42572 31966 ft 442 kts 308°
2026-04-24 01:36 27.01327 50.37634 31959 ft 443 kts 307°
2026-04-24 01:36 27.05592 50.32648 31960 ft 443 kts 307°
2026-04-24 01:37 27.09802 50.27600 31960 ft 442 kts 306°
2026-04-24 01:37 27.13982 50.22528 31970 ft 442 kts 306°
2026-04-24 01:38 27.18620 50.17909 31958 ft 449 kts 315°
2026-04-24 01:38 27.23637 50.13685 31963 ft 452 kts 316°
2026-04-24 01:39 27.28720 50.09512 31962 ft 453 kts 316°
2026-04-24 01:39 27.33802 50.05336 31963 ft 453 kts 316°
2026-04-24 01:40 27.38859 50.01121 31961 ft 451 kts 315°
2026-04-24 01:40 27.43762 49.96790 31954 ft 450 kts 314°
2026-04-24 01:41 27.48679 49.92401 31964 ft 452 kts 315°
2026-04-24 01:41 27.53622 49.88024 31963 ft 450 kts 314°
2026-04-24 01:42 27.58540 49.83686 31965 ft 448 kts 314°
2026-04-24 01:42 27.63428 49.79371 31960 ft 449 kts 314°
2026-04-24 01:43 27.68337 49.75031 31963 ft 448 kts 314°
2026-04-24 01:43 27.73240 49.70693 31964 ft 447 kts 314°
2026-04-24 01:44 27.78142 49.66349 31960 ft 448 kts 314°
2026-04-24 01:44 27.83035 49.61997 31960 ft 448 kts 314°
2026-04-24 01:45 27.87917 49.57630 31962 ft 447 kts 314°
2026-04-24 01:45 27.92793 49.53266 31960 ft 447 kts 314°
2026-04-24 01:46 27.97678 49.48891 31958 ft 448 kts 314°
2026-04-24 01:46 28.02570 49.44506 31964 ft 448 kts 314°
2026-04-24 01:47 28.07408 49.40137 31963 ft 448 kts 313°
2026-04-24 01:47 28.12255 49.35698 31960 ft 447 kts 313°
2026-04-24 01:48 28.17094 49.31263 31960 ft 447 kts 313°
2026-04-24 01:48 28.21947 49.26821 31961 ft 447 kts 313°
2026-04-24 01:49 28.26793 49.22383 31960 ft 447 kts 313°
2026-04-24 01:49 28.31609 49.17977 31960 ft 447 kts 313°
2026-04-24 01:50 28.36448 49.13533 31967 ft 447 kts 312°
2026-04-24 01:50 28.41463 49.09230 31962 ft 451 kts 316°
2026-04-24 01:51 28.46628 49.05221 31959 ft 453 kts 317°
2026-04-24 01:51 28.51862 49.01218 31957 ft 453 kts 317°
2026-04-24 01:52 28.57095 48.97215 31955 ft 452 kts 317°
2026-04-24 01:52 28.62306 48.93214 31952 ft 452 kts 317°
2026-04-24 01:53 28.67518 48.89202 31955 ft 452 kts 317°
2026-04-24 01:53 28.72727 48.85189 31955 ft 450 kts 316°
2026-04-24 01:54 28.77892 48.81208 31950 ft 447 kts 316°
2026-04-24 01:54 28.83021 48.77255 31956 ft 448 kts 316°
2026-04-24 01:55 28.88197 48.73291 31971 ft 448 kts 316°
2026-04-24 01:55 28.93351 48.69346 31952 ft 444 kts 316°
2026-04-24 01:56 28.97608 48.66081 31951 ft 443 kts 316°
2026-04-24 01:56 29.02734 48.62137 31949 ft 445 kts 316°
2026-04-24 01:57 29.07881 48.58172 31949 ft 446 kts 316°
2026-04-24 01:57 29.13036 48.54203 31946 ft 446 kts 316°
2026-04-24 01:58 29.18186 48.50232 31946 ft 446 kts 316°
2026-04-24 01:58 29.23303 48.46281 31947 ft 445 kts 316°
2026-04-24 01:59 29.28423 48.42326 31948 ft 443 kts 316°
2026-04-24 01:59 29.33540 48.38361 31944 ft 444 kts 316°
2026-04-24 02:00 29.38661 48.34389 31956 ft 444 kts 316°
2026-04-24 02:00 29.43773 48.30423 31945 ft 443 kts 316°
2026-04-24 02:01 29.49066 48.26704 31947 ft 449 kts 320°
2026-04-24 02:01 29.54547 48.23234 31931 ft 450 kts 321°
2026-04-24 02:02 29.60008 48.19742 31946 ft 447 kts 320°
2026-04-24 02:02 29.65372 48.16234 31942 ft 446 kts 320°
2026-04-24 02:03 29.73450 48.10891 31952 ft 447 kts 320°
2026-04-24 02:03 29.78832 48.07326 31936 ft 447 kts 320°
2026-04-24 02:04 29.84227 48.03753 31939 ft 447 kts 320°
2026-04-24 02:04 29.89613 48.00182 31950 ft 447 kts 320°
2026-04-24 02:05 29.95018 47.96591 31933 ft 449 kts 320°
2026-04-24 02:05 30.00395 47.93016 31930 ft 449 kts 320°
2026-04-24 02:06 30.05563 47.89097 31927 ft 442 kts 315°
2026-04-24 02:06 30.10608 47.85029 31922 ft 443 kts 314°
2026-04-24 02:07 30.15646 47.80924 31922 ft 443 kts 314°
2026-04-24 02:07 30.20682 47.76818 31920 ft 444 kts 314°
2026-04-24 02:08 30.25731 47.72704 31922 ft 444 kts 314°
2026-04-24 02:08 30.30774 47.68593 31922 ft 444 kts 314°
2026-04-24 02:09 30.35816 47.64478 31930 ft 444 kts 314°
2026-04-24 02:09 30.40863 47.60353 31938 ft 443 kts 314°
2026-04-24 02:10 30.45877 47.56249 31937 ft 444 kts 314°
2026-04-24 02:10 30.50928 47.52108 31934 ft 444 kts 314°
2026-04-24 02:11 30.55975 47.47966 31933 ft 444 kts 314°
2026-04-24 02:11 30.61008 47.43833 31915 ft 443 kts 314°
2026-04-24 02:12 30.66037 47.39694 31925 ft 443 kts 314°
2026-04-24 02:12 30.71067 47.35549 31922 ft 444 kts 314°
2026-04-24 02:13 30.76082 47.31411 31919 ft 444 kts 314°
2026-04-24 02:13 30.81144 47.27232 31921 ft 444 kts 314°
2026-04-24 02:14 30.86176 47.23070 31922 ft 444 kts 314°
2026-04-24 02:14 30.91196 47.18917 31922 ft 441 kts 314°
2026-04-24 02:15 30.96192 47.14774 31925 ft 441 kts 314°
2026-04-24 02:15 31.01198 47.10613 31940 ft 442 kts 314°
2026-04-24 02:16 31.06193 47.06463 31928 ft 439 kts 314°
2026-04-24 02:16 31.11136 47.02348 31933 ft 439 kts 314°
2026-04-24 02:17 31.16116 46.98195 31959 ft 439 kts 314°
2026-04-24 02:17 31.21077 46.94055 31931 ft 437 kts 314°
2026-04-24 02:18 31.26020 46.89922 31938 ft 438 kts 314°
2026-04-24 02:18 31.30978 46.85771 31967 ft 438 kts 313°
2026-04-24 02:19 31.35890 46.81659 31944 ft 435 kts 313°
2026-04-24 02:19 31.40795 46.77545 31944 ft 434 kts 313°
2026-04-24 02:20 31.45701 46.73419 31968 ft 434 kts 313°
2026-04-24 02:20 31.50607 46.69291 31945 ft 433 kts 313°
2026-04-24 02:21 31.55504 46.65166 31951 ft 433 kts 313°
2026-04-24 02:21 31.60394 46.61040 31983 ft 433 kts 313°
2026-04-24 02:22 31.65277 46.56915 31941 ft 432 kts 314°
2026-04-24 02:22 31.70153 46.52791 31958 ft 433 kts 314°
2026-04-24 02:23 31.75039 46.48652 31953 ft 433 kts 314°
2026-04-24 02:23 31.79896 46.44535 31959 ft 433 kts 314°
2026-04-24 02:24 31.84776 46.40392 31956 ft 433 kts 314°
2026-04-24 02:24 31.89663 46.36236 31957 ft 433 kts 314°
2026-04-24 02:25 31.94547 46.32075 31960 ft 434 kts 315°
2026-04-24 02:25 31.99442 46.27902 31962 ft 434 kts 315°
2026-04-24 02:26 32.04334 46.23728 31965 ft 434 kts 315°
2026-04-24 02:26 32.09236 46.19537 31963 ft 435 kts 315°
2026-04-24 02:27 32.14139 46.15340 31963 ft 436 kts 315°
2026-04-24 02:27 32.19047 46.11133 31966 ft 436 kts 315°
2026-04-24 02:28 32.23948 46.06928 31966 ft 436 kts 315°
2026-04-24 02:28 32.28849 46.02715 31968 ft 436 kts 315°
2026-04-24 02:29 32.33762 45.98483 31985 ft 440 kts 315°
2026-04-24 02:29 32.38680 45.94242 31971 ft 441 kts 315°
2026-04-24 02:30 32.43666 45.89935 31972 ft 446 kts 315°
2026-04-24 02:30 32.48673 45.85612 31982 ft 445 kts 316°
2026-04-24 02:31 32.53672 45.81289 31974 ft 445 kts 316°
2026-04-24 02:31 32.58668 45.76960 31970 ft 445 kts 315°